Temp_Advection
nan nan nan nan nan nan nan nan nan nan nan nan nan nan nan nan nan nan nan nan nan nan nan nan nan nan nan nan nan nan nan nan nan nan nan nan nan nan nan nan nan nan nan nan nan
nan -0 0 0 0 -0 -0 -0 -0 -0 0 0 0 0 0 -0 0 -1 -1 0 -0 0 0 -0 -0 0 0 -0 0 0 -0 -1 -0 -1 -0 -0 -0 -0 -0 -0 0 0 -0 -0 nan
nan -0 -0 0 0 -0 -0 -0 -0 -0 0 0 0 0 0 0 -0 -1 -1 0 0 0 -0 -0 0 0 -0 0 0 0 -0 -0 -0 -1 0 0 -0 -1 0 -0 -0 0 0 -0 nan
nan -0 -0 -0 0 -0 -0 0 0 0 0 0 0 0 0 0 -0 0 -0 0 0 0 0 0 0 0 0 -0 0 -0 -1 -1 -0 -0 0 -0 -0 -0 -1 -1 -0 0 0 0 nan
nan 0 -0 -0 -0 0 0 0 0 0 0 0 0 0 0 0 -1 0 0 0 0 0 0 0 0 0 -0 -0 0 -0 -0 -1 -0 -0 -1 0 0 -0 -1 -1 -1 -0 -0 -0 nan
nan 0 0 -0 -0 0 0 0 0 0 0 0 0 0 0 -0 -1 0 0 0 0 0 0 -0 -0 -0 -0 0 -0 -0 -0 -0 -1 -1 -0 -0 -0 -1 -1 -1 -1 -0 -0 -0 nan
nan 0 0 -0 -0 0 0 0 0 0 0 0 0 0 -0 -1 0 0 0 0 0 0 -0 -0 -0 -0 -0 -0 -0 0 -0 -1 -0 -0 -0 -0 0 -1 -1 -1 -1 -0 -0 -0 nan
nan 0 0 0 0 0 0 0 0 0 0 0 0 0 -0 -0 0 0 0 0 0 -0 -0 0 0 -0 -0 -0 -0 -0 -0 -0 -0 -0 -0 0 -0 -1 -1 -0 0 -1 -1 -0 nan
nan 0 0 0 0 0 0 0 0 0 0 0 0 0 -0 -0 -0 -0 0 0 -0 -0 -0 -0 0 0 0 0 0 0 -0 -0 -0 -0 0 0 -1 -1 -1 0 -0 -1 -0 0 nan
nan 0 0 0 0 0 0 0 0 0 0 0 -0 -0 -1 -0 -0 -0 0 0 0 0 0 0 0 0 0 0 -0 0 0 -0 -0 -0 0 -0 -0 -1 -1 0 -0 -1 -0 1 nan
nan 0 0 0 0 0 0 0 -0 -0 -0 -0 -0 -0 -0 0 0 0 0 0 0 0 0 0 0 -0 -0 -0 0 -0 -0 -0 -0 -0 -0 -0 -1 -1 -0 0 -1 -2 0 1 nan
nan 0 0 0 0 0 0 -0 -0 -0 -0 -0 0 -0 -0 0 -0 0 0 0 0 0 -0 0 -1 -0 -0 0 0 0 0 -0 -1 -1 -0 0 -1 -1 -1 -0 -1 -0 -1 0 nan
nan 0 0 1 1 0 0 0 0 0 0 -0 0 0 -0 -0 -0 0 0 -0 0 -0 0 0 -0 0 0 0 0 0 -0 -0 -0 -1 -1 -0 -1 -1 -1 -1 -1 -1 -0 1 nan
nan 0 1 0 -0 0 0 -0 -0 0 -0 -0 0 -0 0 -0 -0 -0 -0 -0 0 0 0 -0 0 0 0 0 -0 -0 -0 -0 -0 0 -0 0 -0 -0 -0 0 -0 -0 0 1 nan
nan 0 0 0 -0 -0 -0 -0 0 0 -0 0 -0 0 0 0 -0 -0 0 1 0 0 -0 -0 -0 -0 -0 -1 -0 -0 -0 0 0 0 -0 -0 -0 -1 -0 -0 -1 0 0 1 nan
nan 0 0 0 -0 -0 0 0 -0 -0 -1 0 -0 -0 -0 -0 -0 -0 0 1 -0 -0 0 0 0 -0 -0 -0 0 -0 0 -0 0 0 -0 -1 -0 -0 -0 -1 -0 -0 1 2 nan
nan -0 0 -0 -0 0 0 0 -0 -0 -0 -0 -0 -0 -0 -0 0 -0 0 0 -0 0 0 0 -0 -0 0 0 0 0 0 0 0 0 -1 -0 -0 -1 -1 -1 -0 0 0 1 nan
nan -0 1 1 0 -0 -0 -0 0 -1 0 0 -0 -0 -0 0 -0 0 0 -0 -0 0 -0 -0 -0 -0 -0 -0 -0 0 0 -0 -0 -0 -1 0 -0 -0 -1 -0 0 -0 1 1 nan
nan 0 1 0 1 0 -0 0 -1 -0 -0 -0 -0 -0 -0 0 0 0 0 -0 0 -0 -0 0 -0 -0 -0 -0 0 0 -0 -0 0 -0 -0 -0 -0 -0 -0 -0 0 1 2 1 nan
nan 1 1 0 1 1 0 -0 -0 0 -0 -0 0 -0 0 0 0 0 -0 -0 -0 -1 -0 0 -0 0 0 0 0 0 -0 -0 -0 -0 -0 -0 -0 -0 -0 0 -0 0 0 0 nan
nan 1 0 0 0 1 -0 -0 -0 0 -0 -0 -0 -0 0 0 0 0 -0 -0 -0 -0 0 -0 -0 0 0 -0 -0 -0 -0 -0 -0 -0 -0 -0 -0 -0 -0 0 -0 -0 -0 0 nan
nan -0 0 -0 -0 -0 -0 -0 -0 -0 -0 -0 0 0 -0 -0 -0 -0 -1 -0 -1 -0 -0 0 0 -0 -1 -0 -0 -0 -0 -0 0 -0 0 -0 -1 -0 0 -0 -0 0 0 0 nan
nan -0 -0 -0 -0 -0 0 -0 0 0 -0 0 -0 -0 -0 -0 -0 -1 -1 -1 -0 -0 -0 0 -0 -0 -0 -0 -0 -0 -1 -0 -0 -0 0 -0 -0 -0 0 0 1 0 -0 -1 nan
nan -0 -0 -0 -0 -0 -0 -0 0 -0 0 0 0 0 -0 -0 -0 -0 -0 -0 0 0 0 0 -0 -0 -0 0 0 -0 -1 0 -0 -0 -0 -0 -0 -0 -0 -0 0 0 0 -0 nan
nan -0 -0 -0 -0 -0 -0 -0 -0 0 0 0 0 -0 -0 -0 -0 -0 -1 0 0 0 0 0 0 0 -1 -0 -0 -1 -0 -0 -1 0 0 0 0 -2 -0 -0 -0 0 -0 0 nan
nan 0 -0 -0 -0 0 0 -0 -0 -0 -0 -0 -0 -0 0 -0 -0 -0 -0 -0 -0 -0 0 -0 -0 -0 -0 -0 -1 -0 -0 -0 1 1 0 -0 -2 -1 -0 -0 0 0 -0 -1 nan
nan nan nan nan nan nan nan nan nan nan nan nan nan nan nan nan nan nan nan nan nan nan nan nan nan nan nan nan nan nan nan nan nan nan nan nan nan nan nan nan nan nan nan nan nan
Wind_Speed
13 10 9 8 8 8 8 8 8 7 9 8 12 14 13 11 11 14 15 9 9 10 10 8 11 8 7 10 12 4 2 6 9 8 10 7 3 15 14 6 5 3 3 11 8
13 12 10 9 8 8 6 6 6 6 8 11 9 10 12 16 15 21 18 13 11 13 11 8 5 8 4 5 8 7 6 10 7 11 7 10 5 11 6 3 4 4 3 9 14
14 13 12 10 9 7 5 4 4 4 7 10 13 12 8 4 8 21 19 23 20 16 13 10 8 4 3 9 7 6 10 6 7 21 18 12 8 17 10 5 8 5 4 2 12
18 15 13 11 9 7 5 4 3 4 6 6 8 9 11 9 6 2 2 2 19 20 15 13 7 4 3 5 9 8 10 16 10 18 14 4 9 9 13 13 9 9 10 9 12
19 16 13 12 11 8 7 5 4 3 4 4 5 6 10 11 14 4 6 6 7 14 19 18 12 6 5 5 8 6 6 17 21 23 26 29 19 14 21 24 19 16 17 19 21
18 17 14 12 13 10 8 6 5 4 3 3 5 8 12 6 10 20 10 6 3 5 7 19 11 13 7 7 7 9 12 13 18 22 21 19 24 21 26 25 24 17 18 22 21
18 17 15 15 14 13 10 7 5 4 4 4 5 8 13 20 8 13 21 16 12 8 8 9 19 9 2 4 12 8 9 9 9 10 7 20 24 22 23 25 24 19 23 26 26
20 18 16 14 13 14 11 9 8 7 5 6 5 7 9 5 14 17 13 14 19 17 15 11 9 8 7 9 6 3 3 4 4 9 7 9 28 9 20 23 28 27 32 32 32
22 19 17 14 13 14 12 11 8 7 6 6 6 6 10 6 11 14 19 14 11 16 20 17 11 7 2 3 4 4 6 6 4 7 4 12 26 14 26 25 25 31 32 32 31
23 21 18 14 13 13 14 12 9 7 8 7 7 3 11 7 5 4 23 16 8 8 7 9 5 2 3 5 15 12 7 6 6 4 8 18 23 10 17 29 26 31 31 33 24
25 23 20 17 15 14 17 11 6 6 15 10 11 5 2 2 4 4 18 19 12 10 5 2 4 13 11 14 8 6 8 11 4 6 11 14 19 17 19 23 19 33 34 24 27
25 24 21 19 17 15 18 14 9 4 4 21 23 18 17 4 1 7 13 14 13 12 4 4 12 11 8 10 10 14 16 14 9 10 12 11 16 16 17 20 24 28 28 26 26
24 22 22 18 17 18 23 23 11 3 2 6 20 15 20 18 11 12 19 14 6 16 16 17 7 17 13 13 11 16 16 10 12 12 18 14 22 16 15 21 28 27 34 31 35
25 25 23 21 20 22 24 20 12 3 2 4 4 3 7 12 5 22 20 14 6 15 13 14 18 14 11 15 12 17 7 13 13 8 8 2 11 9 9 16 15 23 24 33 37
28 27 27 25 16 26 22 16 11 3 2 4 4 5 5 10 5 4 23 22 13 9 7 8 7 16 20 17 13 8 8 10 10 9 7 18 8 8 11 12 18 20 28 36 43
28 29 28 27 19 16 16 20 14 4 6 6 5 6 5 6 3 4 4 17 1 15 16 10 3 5 7 11 17 2 6 5 5 4 10 17 11 12 12 15 10 9 28 34 42
16 33 31 28 28 22 25 25 3 4 2 6 4 5 5 7 6 8 8 7 6 6 8 4 16 5 3 3 5 11 6 3 4 6 9 9 12 18 8 15 17 16 23 32 42
24 35 33 33 28 31 34 3 3 5 5 3 4 7 7 7 7 8 4 8 14 6 2 7 4 15 10 17 6 14 15 4 6 3 6 6 9 6 15 23 23 24 32 38 41
29 34 40 36 32 36 24 3 7 5 6 9 6 6 6 8 4 3 9 8 10 15 8 6 5 2 4 6 15 5 11 19 6 6 4 6 4 7 12 9 7 13 31 37 43
24 40 40 40 35 37 8 5 5 2 6 4 8 8 7 7 8 7 7 7 6 18 13 5 3 7 5 6 12 10 7 6 7 5 6 5 5 7 8 14 7 13 22 32 37
30 19 33 39 41 24 5 5 3 5 8 7 7 6 7 6 7 6 6 5 13 11 19 5 3 2 2 7 12 11 13 6 8 7 3 5 6 8 14 10 12 14 27 34 39
12 3 39 41 6 5 4 5 7 5 11 4 4 8 8 9 7 6 9 7 17 8 10 11 5 7 16 5 13 17 18 17 8 8 9 1 7 5 15 10 17 19 27 29 34
20 8 42 45 5 8 4 7 4 6 9 6 9 10 12 6 3 9 7 9 11 7 8 9 5 4 4 6 11 13 20 17 11 3 10 2 7 11 4 10 15 19 24 28 34
9 4 12 23 3 7 12 7 6 7 11 8 5 14 6 7 8 4 7 7 23 12 16 14 5 7 9 1 3 10 24 20 20 11 8 14 12 21 4 10 9 17 28 35 39
7 2 9 7 7 10 11 5 12 8 8 12 4 12 7 4 6 9 13 2 9 17 13 8 6 10 20 24 15 13 21 23 16 8 13 4 16 30 14 12 14 23 26 29 32
10 5 9 11 17 8 13 10 11 8 6 5 8 10 15 12 5 3 5 5 5 11 11 5 4 5 6 18 16 16 21 18 14 8 6 10 16 19 4 12 13 24 27 27 33
5 12 15 13 10 8 5 9 11 8 12 13 12 10 5 14 17 14 16 9 10 11 11 6 3 3 4 9 9 8 20 17 6 10 14 14 20 4 4 6 9 22 29 32 36
Wind_Direction
295 278 272 272 278 287 284 272 255 236 226 220 225 228 238 244 250 249 247 247 228 239 253 252 243 234 235 224 211 201 183 211 211 197 237 220 330 300 296 189 181 181 238 303 254
299 287 270 268 277 288 277 269 261 246 230 221 225 233 249 249 246 251 250 238 251 251 250 255 244 224 222 237 226 196 212 212 201 214 235 260 217 285 298 280 203 195 274 334 190
293 288 270 262 269 279 265 256 260 254 242 226 229 229 233 221 262 271 264 252 241 237 244 237 240 258 235 236 214 224 236 222 235 229 238 269 279 288 231 221 225 206 278 360 199
289 282 270 259 257 262 246 252 256 259 255 241 226 222 219 218 216 43 23 218 219 218 233 233 231 192 222 227 230 258 248 239 253 261 268 255 276 274 271 259 233 247 257 271 254
284 281 265 259 249 247 238 252 253 259 261 247 218 200 199 214 219 137 109 120 152 208 226 233 222 198 201 220 266 244 265 255 259 265 264 276 268 264 264 272 265 260 263 259 266
279 285 261 262 248 239 233 240 245 247 236 233 210 206 215 230 239 217 193 169 157 168 215 221 224 220 255 235 236 284 293 278 264 265 264 256 270 267 268 276 268 254 263 256 265
265 276 266 261 248 232 229 229 226 236 228 212 218 223 234 239 197 198 219 238 236 216 234 225 222 228 265 299 277 291 303 297 252 257 267 268 270 255 262 267 263 257 267 273 271
257 262 265 257 247 228 223 227 227 230 227 220 222 233 251 266 226 221 193 212 229 246 239 233 228 270 247 271 318 356 278 256 204 204 236 218 260 254 253 250 251 251 261 269 268
252 251 257 252 238 221 222 225 226 233 226 223 220 224 264 253 247 229 212 206 223 241 247 252 256 239 258 236 281 211 265 262 296 225 219 209 265 248 254 259 252 259 263 264 276
244 243 246 246 230 218 215 221 221 225 204 220 194 221 254 245 254 243 206 207 208 216 250 242 227 178 122 190 231 235 242 235 219 315 220 249 265 261 253 242 242 251 255 266 238
242 246 237 227 221 214 210 198 207 219 203 197 201 194 254 262 199 189 195 202 210 242 194 244 208 224 224 220 243 287 282 261 352 305 282 262 273 262 252 258 243 244 254 255 220
238 236 232 221 213 216 210 200 198 134 228 234 241 238 241 139 289 222 175 184 201 224 145 263 244 237 231 233 233 246 261 272 289 270 282 275 283 271 249 246 241 243 245 247 211
230 227 223 213 203 209 214 211 219 238 271 252 237 241 239 236 236 213 188 192 194 223 220 225 245 225 224 226 230 239 242 256 260 296 286 289 284 273 258 249 249 248 244 239 202
219 222 214 194 195 207 211 207 215 217 299 213 219 252 215 213 263 220 214 183 221 222 224 242 230 260 229 230 217 246 209 237 248 254 256 55 278 249 241 233 232 243 224 223 201
218 214 206 203 203 201 210 198 183 180 357 174 157 159 182 174 150 218 206 205 205 197 173 214 209 220 232 232 220 253 235 230 243 252 282 258 260 255 242 244 223 226 211 216 202
224 208 202 188 205 209 187 162 147 53 253 173 133 176 173 204 216 116 150 216 305 227 226 220 145 224 217 226 224 217 206 273 266 246 240 239 218 249 230 235 226 218 212 204 195
246 206 198 193 189 169 162 151 117 170 206 173 169 181 197 194 208 187 175 203 214 195 215 195 232 258 201 209 198 204 209 262 217 202 246 185 213 243 250 243 221 215 196 192 186
264 197 192 189 176 163 158 101 147 196 179 127 157 170 194 181 226 216 222 225 226 204 273 197 237 198 190 213 178 203 199 203 209 215 230 160 236 241 223 246 249 259 210 180 179
266 188 186 184 173 165 161 185 213 203 148 154 153 191 199 219 223 220 225 225 226 190 195 197 253 224 196 183 191 195 208 219 305 252 260 224 293 285 251 261 232 209 168 172 170
310 176 180 182 177 171 167 229 225 154 119 140 194 182 195 190 195 185 201 208 215 195 203 216 267 199 162 188 224 202 151 151 206 235 241 245 239 230 222 224 158 163 169 168 168
295 149 180 176 173 167 193 219 207 171 141 179 197 184 235 175 182 202 228 239 207 193 190 155 200 158 43 208 211 213 231 216 174 226 266 271 251 197 222 184 172 185 170 167 169
201 145 177 170 155 184 181 191 187 173 211 185 194 214 224 191 186 213 227 230 193 180 184 196 214 228 232 209 223 210 212 220 218 204 236 342 275 351 234 158 164 191 169 169 168
152 120 171 174 164 181 164 209 205 187 190 209 213 212 206 192 221 194 218 225 190 167 163 166 216 254 258 175 211 211 206 196 236 240 225 231 271 4 134 150 168 163 156 161 167
124 141 146 188 205 156 193 201 201 221 228 215 232 223 239 232 219 259 234 208 189 179 174 177 225 222 240 358 151 192 197 204 208 231 214 231 261 287 247 142 140 155 159 167 176
159 154 141 169 197 176 176 200 201 210 210 210 223 240 217 255 210 219 246 210 169 164 174 188 246 219 241 256 248 210 192 194 193 179 200 232 221 261 231 175 173 161 159 162 170
150 152 163 164 175 162 187 201 204 188 197 193 218 230 217 229 215 230 215 192 184 170 187 211 270 259 255 225 219 183 186 191 195 193 257 275 279 242 133 120 139 163 163 168 177
212 157 149 158 178 184 210 205 213 178 203 213 220 259 230 231 244 262 256 261 171 172 190 195 251 290 350 140 130 159 173 181 176 210 197 219 236 151 86 103 151 164 173 179 183
Height
1496 1493 1493 1493 1493 1492 1491 1490 1490 1490 1491 1492 1493 1494 1496 1498 1499 1499 1499 1502 1501 1501 1501 1501 1502 1504 1503 1504 1506 1507 1512 1512 1505 1505 1495 1492 1493 1491 1492 1489 1489 1490 1492 1491 1492
1493 1491 1491 1490 1490 1490 1489 1488 1487 1487 1488 1490 1491 1491 1492 1495 1497 1494 1498 1499 1500 1499 1500 1500 1500 1501 1502 1502 1503 1503 1504 1498 1491 1491 1490 1489 1493 1492 1493 1489 1487 1487 1489 1489 1490
1491 1489 1488 1487 1488 1487 1486 1486 1484 1485 1486 1487 1488 1489 1491 1492 1494 1488 1492 1493 1496 1497 1498 1498 1499 1500 1501 1500 1498 1494 1491 1490 1488 1488 1488 1487 1490 1490 1489 1489 1487 1486 1487 1489 1490
1488 1486 1485 1484 1485 1485 1484 1484 1483 1483 1484 1484 1485 1487 1489 1491 1496 1486 1487 1487 1490 1494 1495 1496 1497 1498 1499 1497 1494 1494 1487 1488 1488 1488 1488 1488 1487 1486 1487 1485 1484 1484 1484 1486 1488
1485 1483 1482 1482 1481 1482 1481 1482 1481 1482 1483 1483 1484 1486 1487 1488 1486 1486 1487 1488 1489 1491 1493 1494 1495 1496 1496 1493 1492 1490 1488 1487 1487 1488 1487 1486 1484 1484 1480 1483 1483 1482 1481 1481 1483
1481 1480 1479 1479 1479 1479 1479 1479 1479 1480 1481 1481 1482 1484 1485 1485 1481 1484 1487 1487 1490 1491 1491 1492 1491 1493 1493 1492 1492 1486 1486 1485 1485 1484 1485 1484 1479 1481 1476 1479 1477 1477 1477 1476 1478
1477 1476 1476 1475 1476 1476 1477 1477 1478 1479 1479 1479 1481 1483 1482 1478 1478 1479 1482 1484 1488 1489 1491 1490 1491 1492 1491 1490 1488 1486 1485 1481 1480 1480 1481 1483 1472 1467 1473 1473 1471 1471 1472 1472 1474
1472 1472 1472 1472 1472 1473 1474 1475 1476 1477 1477 1478 1479 1480 1477 1473 1475 1477 1479 1481 1483 1487 1489 1490 1490 1491 1490 1488 1487 1487 1485 1486 1474 1476 1477 1482 1452 1463 1468 1468 1466 1467 1467 1467 1468
1466 1467 1468 1468 1469 1470 1472 1472 1474 1475 1476 1477 1478 1479 1473 1471 1471 1472 1476 1478 1481 1484 1485 1487 1487 1488 1489 1489 1491 1488 1488 1483 1477 1471 1474 1473 1451 1461 1464 1463 1461 1460 1460 1462 1463
1460 1462 1463 1464 1466 1467 1469 1470 1471 1473 1473 1475 1476 1479 1471 1469 1468 1468 1473 1476 1480 1481 1483 1484 1485 1486 1488 1488 1482 1480 1482 1477 1477 1473 1470 1467 1453 1460 1459 1457 1456 1455 1454 1455 1457
1454 1456 1457 1459 1461 1464 1467 1469 1473 1472 1468 1465 1466 1465 1466 1467 1468 1468 1469 1474 1477 1481 1483 1483 1486 1481 1484 1480 1480 1480 1478 1477 1477 1473 1473 1467 1457 1456 1455 1452 1451 1449 1449 1451 1452
1447 1450 1452 1454 1457 1459 1462 1463 1462 1463 1463 1462 1462 1463 1465 1467 1468 1468 1469 1474 1475 1476 1481 1485 1479 1477 1479 1479 1480 1480 1480 1477 1476 1475 1471 1463 1455 1451 1445 1442 1444 1443 1444 1446 1449
1440 1444 1446 1449 1453 1455 1456 1459 1461 1462 1462 1458 1456 1457 1460 1465 1463 1464 1467 1468 1470 1472 1475 1477 1472 1470 1474 1475 1477 1476 1477 1480 1481 1476 1464 1465 1449 1445 1437 1437 1437 1436 1438 1440 1441
1431 1436 1440 1444 1450 1450 1452 1456 1460 1463 1465 1455 1454 1454 1455 1459 1459 1459 1461 1465 1469 1468 1474 1472 1471 1468 1469 1470 1475 1472 1471 1473 1474 1476 1473 1459 1451 1436 1429 1427 1429 1428 1431 1432 1437
1424 1429 1432 1437 1440 1443 1448 1454 1459 1464 1486 1452 1453 1453 1454 1456 1455 1454 1457 1459 1460 1464 1469 1464 1463 1464 1465 1464 1466 1467 1468 1469 1469 1470 1472 1460 1466 1428 1429 1422 1416 1416 1421 1423 1429
1414 1421 1426 1431 1436 1440 1447 1453 1459 1476 1475 1447 1449 1452 1454 1453 1452 1453 1456 1458 1457 1459 1458 1458 1457 1458 1454 1456 1461 1463 1466 1466 1465 1467 1464 1444 1452 1420 1420 1410 1410 1410 1413 1416 1424
1406 1413 1418 1424 1428 1437 1444 1451 1463 1479 1438 1443 1444 1448 1449 1448 1449 1449 1451 1454 1454 1455 1455 1457 1457 1456 1454 1456 1457 1462 1469 1473 1474 1466 1442 1432 1441 1417 1406 1402 1398 1400 1404 1411 1418
1399 1404 1412 1420 1426 1434 1441 1450 1473 1433 1436 1434 1439 1445 1445 1442 1445 1443 1446 1449 1450 1453 1452 1448 1453 1449 1446 1447 1450 1452 1455 1461 1465 1463 1442 1427 1423 1406 1394 1390 1395 1396 1399 1403 1414
1396 1395 1403 1416 1422 1430 1439 1447 1442 1428 1425 1431 1438 1441 1439 1440 1440 1441 1442 1443 1440 1443 1447 1447 1447 1436 1436 1440 1445 1450 1453 1444 1451 1441 1440 1420 1405 1396 1388 1384 1385 1384 1391 1397 1403
1392 1388 1400 1410 1419 1427 1436 1434 1428 1422 1425 1429 1431 1433 1434 1435 1438 1443 1440 1428 1430 1432 1436 1438 1450 1432 1433 1437 1439 1438 1436 1453 1455 1458 1436 1410 1405 1389 1380 1379 1381 1387 1389 1396 1402
1384 1384 1393 1407 1418 1425 1425 1426 1422 1422 1422 1427 1425 1426 1428 1431 1434 1437 1430 1421 1422 1422 1430 1435 1440 1438 1437 1430 1429 1438 1437 1432 1433 1434 1425 1407 1393 1373 1367 1369 1378 1387 1387 1392 1399
1380 1384 1391 1402 1411 1418 1417 1418 1418 1419 1421 1423 1424 1424 1423 1424 1430 1434 1424 1416 1413 1415 1426 1426 1431 1426 1420 1418 1422 1422 1424 1427 1425 1427 1419 1423 1401 1371 1360 1365 1372 1388 1385 1394 1401
1375 1383 1390 1398 1402 1410 1412 1414 1415 1416 1417 1418 1417 1418 1415 1418 1424 1420 1414 1406 1409 1411 1416 1422 1420 1418 1411 1415 1415 1413 1415 1420 1424 1414 1414 1416 1394 1376 1367 1371 1376 1384 1389 1396 1403
1372 1381 1389 1397 1397 1403 1408 1408 1411 1411 1413 1413 1412 1413 1412 1413 1412 1406 1407 1401 1403 1405 1411 1418 1412 1408 1395 1383 1392 1395 1402 1407 1419 1413 1410 1402 1402 1386 1380 1375 1380 1385 1388 1394 1401
1371 1369 1375 1387 1395 1397 1401 1402 1404 1406 1409 1409 1410 1407 1408 1407 1404 1406 1401 1398 1401 1402 1410 1413 1404 1403 1392 1385 1392 1387 1388 1400 1402 1402 1406 1396 1409 1388 1382 1372 1375 1381 1389 1396 1403
1368 1369 1377 1381 1390 1394 1397 1396 1397 1400 1403 1402 1404 1400 1403 1404 1396 1395 1396 1394 1399 1404 1407 1407 1400 1393 1374 1370 1381 1373 1381 1386 1393 1405 1408 1408 1407 1383 1373 1372 1378 1382 1388 1395 1401
1367 1369 1373 1381 1385 1392 1390 1391 1392 1395 1397 1397 1398 1398 1398 1396 1395 1392 1389 1389 1388 1394 1401 1403 1398 1383 1372 1367 1372 1376 1374 1382 1396 1401 1405 1411 1389 1367 1373 1375 1379 1382 1387 1391 1397